Simultaneous Nadir Overpasses (SNOs) Predictions

Prediction of SNOs between METOP-B and TERRA Satellite Orbit:

Table of predicted SNOs for the next 14.0 days since TLE Epoch: 11/21/2020
Index Date (METOP-B) Time (METOP-B) Lat,Lon (METOP-B) SZA (METOP-B ) Date (TERRA) Time (TERRA) Lat,Lon (TERRA) SZA (TERRA ) Distance(km) Time Diff (sec)
1 11/23/2020 12:01:53 81.29, 46.20 104.74 11/23/2020 12:01:56 81.29, 46.33 104.75 2.26 3
2 11/23/2020 12:52:32 -81.30,-145.78 75.18 11/23/2020 12:51:22 -81.31,-145.72 75.20 1.21 70
3 11/26/2020 06:45:36 -81.29, -55.00 74.79 11/26/2020 06:46:44 -81.29, -54.83 74.73 2.84 68
4 11/26/2020 07:36:15 81.30, 113.05 105.31 11/26/2020 07:36:10 81.29, 112.87 105.29 3.08 5
5 11/29/2020 02:19:58 -81.29, 11.83 74.27 11/29/2020 02:20:58 -81.29, 11.68 74.26 2.48 60
6 11/29/2020 03:10:38 81.30, 179.50 105.78 11/29/2020 03:10:24 81.30, 179.36 105.76 2.24 14
7 12/01/2020 21:54:20 -81.29, 78.25 73.86 12/01/2020 21:55:11 -81.30, 78.15 73.84 1.68 51
8 12/01/2020 22:45:00 81.30,-114.08 106.20 12/01/2020 22:44:37 81.30,-114.19 106.17 1.84 23
9 12/04/2020 17:28:43 -81.29, 144.65 73.50 12/04/2020 17:29:25 -81.30, 144.57 73.49 1.30 42
